CES7630 ZUXC-PHNL

Flight info

Callsign CES7630
Flight time N/A
Altitude 35100
Route BOPTU W162 KAKMI W144 IGNAK W179 WFX B213 ESPEG V154 SNF W269 OLPOV B213 WHA R343 PK A593 AKARA/K0878F351 A593 LAMEN/N0474F351 A593 SADLI Y590 BEDAR Y591 FUE Y23 KASTE Y81 TASOT Y57 LIGNI Y816 IPROS Y830 LAPIL OTR13 SEALS DCT 34N153E DCT 34N159E DCT 33N166E DCT 31N173E DCT 29N179E DCT 27N174W DCT 25N168W DCT CANON DCT CANON
Aircraft MD11/H-SDE1E2E3FGHIJ2J3J4J5M1RWXY/LB1D1

Departure

Time 2026-04-26 14:32
Airport Xichang Qingshan Airport (ZUXC)

Arrival

Time N/A
Airport Daniel K. Inouye International Airport (PHNL)
Time Latitude Longitude Altitude Speed Heading
2026-04-26 14:09 27.98292 102.18647 5089 ft 0 kts 88°
2026-04-26 14:21 27.98292 102.18641 5089 ft 4 kts 88°
2026-04-26 14:21 27.98291 102.18612 5089 ft 3 kts 88°
2026-04-26 14:21 27.98289 102.18587 5091 ft 4 kts 59°
2026-04-26 14:21 27.98283 102.18575 5096 ft 4 kts 359°
2026-04-26 14:22 27.98260 102.18581 5093 ft 4 kts 339°
2026-04-26 14:22 27.98235 102.18591 5092 ft 4 kts 352°
2026-04-26 14:22 27.98225 102.18593 5092 ft 0 kts
2026-04-26 14:25 27.98227 102.18593 5090 ft 2 kts
2026-04-26 14:25 27.98265 102.18592 5089 ft 9 kts 359°
2026-04-26 14:25 27.98353 102.18590 5089 ft 16 kts 358°
2026-04-26 14:26 27.98476 102.18584 5089 ft 19 kts 357°
2026-04-26 14:26 27.98610 102.18579 5089 ft 20 kts 358°
2026-04-26 14:26 27.98751 102.18575 5089 ft 21 kts 359°
2026-04-26 14:26 27.98898 102.18569 5089 ft 22 kts 357°
2026-04-26 14:27 27.99048 102.18562 5090 ft 21 kts 358°
2026-04-26 14:27 27.99192 102.18557 5090 ft 20 kts 358°
2026-04-26 14:27 27.99333 102.18551 5090 ft 20 kts 358°
2026-04-26 14:27 27.99472 102.18547 5090 ft 20 kts 358°
2026-04-26 14:28 27.99607 102.18542 5090 ft 19 kts 358°
2026-04-26 14:28 27.99742 102.18537 5090 ft 19 kts 357°
2026-04-26 14:28 27.99877 102.18530 5089 ft 19 kts 358°
2026-04-26 14:28 28.00010 102.18524 5090 ft 19 kts 358°
2026-04-26 14:29 28.00141 102.18519 5091 ft 19 kts 358°
2026-04-26 14:29 28.00271 102.18514 5089 ft 19 kts 358°
2026-04-26 14:29 28.00400 102.18510 5089 ft 16 kts 358°
2026-04-26 14:29 28.00472 102.18506 5090 ft 8 kts 349°
2026-04-26 14:30 28.00500 102.18471 5090 ft 5 kts 283°
2026-04-26 14:30 28.00505 102.18438 5091 ft 4 kts 276°
2026-04-26 14:30 28.00504 102.18396 5093 ft 7 kts 262°
2026-04-26 14:30 28.00472 102.18370 5091 ft 6 kts 185°
2026-04-26 14:31 28.00341 102.18376 5091 ft 50 kts 178°
2026-04-26 14:31 27.99731 102.18400 5091 ft 122 kts 178°
2026-04-26 14:31 27.98684 102.18441 5092 ft 174 kts 177°
2026-04-26 14:31 27.97411 102.18488 5292 ft 191 kts 174°
2026-04-26 14:32 27.96098 102.18543 5977 ft 186 kts 171°
2026-04-26 14:32 27.94810 102.18626 6620 ft 186 kts 169°
2026-04-26 14:32 27.93495 102.18715 7223 ft 188 kts 169°
2026-04-26 14:32 27.92185 102.18801 7782 ft 190 kts 169°
2026-04-26 14:33 27.90859 102.18879 8314 ft 194 kts 171°
2026-04-26 14:33 27.89428 102.18693 8493 ft 222 kts 188°
2026-04-26 14:33 27.87923 102.18153 8770 ft 235 kts 193°
2026-04-26 14:33 27.86360 102.17605 9148 ft 233 kts 180°
2026-04-26 14:34 27.84829 102.17812 9563 ft 217 kts 148°
2026-04-26 14:34 27.83609 102.18740 9942 ft 211 kts 134°
2026-04-26 14:34 27.82484 102.19816 10351 ft 212 kts 133°
2026-04-26 14:34 27.81347 102.20888 10746 ft 213 kts 133°
2026-04-26 14:35 27.80269 102.22029 11097 ft 212 kts 125°
2026-04-26 14:35 27.79433 102.23420 11235 ft 218 kts 111°
2026-04-26 14:35 27.78988 102.25093 11372 ft 229 kts 95°
2026-04-26 14:35 27.79069 102.26926 11519 ft 241 kts 76°
2026-04-26 14:36 27.79677 102.28749 11651 ft 258 kts 67°
2026-04-26 14:36 27.80507 102.30664 11792 ft 286 kts 65°
2026-04-26 14:36 27.81446 102.32757 11945 ft 311 kts 65°
2026-04-26 14:36 27.82453 102.34987 12429 ft 322 kts 64°
2026-04-26 14:37 27.83477 102.37253 13194 ft 325 kts 65°
2026-04-26 14:37 27.84504 102.39533 13982 ft 326 kts 65°
2026-04-26 14:37 27.85530 102.41816 14790 ft 326 kts 64°
2026-04-26 14:37 27.86556 102.44103 15611 ft 325 kts 64°
2026-04-26 14:38 27.87577 102.46386 16439 ft 325 kts 63°
2026-04-26 14:38 27.88593 102.48661 17202 ft 324 kts 62°
2026-04-26 14:38 27.89611 102.50935 17899 ft 325 kts 61°
2026-04-26 14:38 27.90291 102.52449 18315 ft 327 kts 60°
2026-04-26 14:39 27.91675 102.55523 19267 ft 329 kts 59°
2026-04-26 14:39 27.92719 102.57838 19908 ft 332 kts 58°
2026-04-26 14:39 27.93771 102.60171 20571 ft 335 kts 57°
2026-04-26 14:39 27.94834 102.62528 21133 ft 337 kts 56°
2026-04-26 14:40 27.95905 102.64904 21682 ft 341 kts 56°
2026-04-26 14:40 27.96973 102.67271 22198 ft 344 kts 56°
2026-04-26 14:40 27.98065 102.69698 22719 ft 348 kts 56°
2026-04-26 14:40 27.99167 102.72148 23258 ft 351 kts 56°
2026-04-26 14:41 28.00274 102.74610 23830 ft 352 kts 56°
2026-04-26 14:41 28.01384 102.77086 24410 ft 354 kts 56°
2026-04-26 14:41 28.02498 102.79574 25060 ft 353 kts 56°
2026-04-26 14:41 28.03607 102.82051 25699 ft 353 kts 56°
2026-04-26 14:42 28.04713 102.84523 26377 ft 351 kts 56°
2026-04-26 14:42 28.05815 102.86984 27029 ft 350 kts 56°
2026-04-26 14:42 28.06915 102.89441 27673 ft 349 kts 56°
2026-04-26 14:42 28.08009 102.91888 28283 ft 348 kts 56°
2026-04-26 14:43 28.09103 102.94336 28705 ft 348 kts 56°
2026-04-26 14:43 28.10190 102.96771 29236 ft 346 kts 56°
2026-04-26 14:43 28.11275 102.99200 29805 ft 345 kts 56°
2026-04-26 14:43 28.12356 103.01622 30285 ft 344 kts 56°
2026-04-26 14:44 28.13435 103.04039 30717 ft 343 kts 56°
2026-04-26 14:44 28.14511 103.06451 31178 ft 342 kts 56°
2026-04-26 14:44 28.15583 103.08855 31561 ft 342 kts 56°
2026-04-26 14:44 28.16653 103.11258 31950 ft 342 kts 56°
2026-04-26 14:45 28.17723 103.13660 32326 ft 341 kts 56°
2026-04-26 14:45 28.18428 103.15246 32599 ft 340 kts 56°
2026-04-26 14:45 28.19851 103.18447 33078 ft 339 kts 56°
2026-04-26 14:45 28.20914 103.20838 33379 ft 339 kts 56°
2026-04-26 14:46 28.21971 103.23220 33711 ft 338 kts 56°
2026-04-26 14:46 28.23026 103.25598 34022 ft 337 kts 56°
2026-04-26 14:46 28.24077 103.27967 34363 ft 336 kts 56°
2026-04-26 14:46 28.25128 103.30339 34689 ft 336 kts 56°
2026-04-26 14:47 28.26161 103.32672 34963 ft 335 kts 56°
2026-04-26 14:47 28.27221 103.35074 35114 ft 339 kts 56°
2026-04-26 14:47 28.28277 103.37476 35163 ft 340 kts 56°
2026-04-26 14:48 28.30384 103.42281 35129 ft 337 kts 56°
2026-04-26 14:48 28.32449 103.46977 35154 ft 335 kts 56°
2026-04-26 14:49 28.34538 103.51713 35147 ft 335 kts 56°
2026-04-26 14:49 28.36620 103.56441 35150 ft 335 kts 56°
2026-04-26 14:50 28.38700 103.61168 35154 ft 335 kts 56°
2026-04-26 14:50 28.40779 103.65900 35149 ft 334 kts 56°
2026-04-26 14:51 28.42859 103.70637 35138 ft 335 kts 56°
2026-04-26 14:51 28.44937 103.75377 35146 ft 335 kts 56°
2026-04-26 14:52 28.47010 103.80113 35152 ft 335 kts 56°
2026-04-26 14:52 28.49089 103.84865 35151 ft 335 kts 56°
2026-04-26 14:53 28.51161 103.89608 35150 ft 335 kts 56°
2026-04-26 14:53 28.53228 103.94347 35152 ft 335 kts 56°
2026-04-26 14:54 28.55296 103.99093 35160 ft 334 kts 56°
2026-04-26 14:54 28.57366 104.03848 35152 ft 336 kts 57°
2026-04-26 14:55 28.59417 104.08612 35137 ft 335 kts 57°
2026-04-26 14:55 28.61472 104.13378 35151 ft 335 kts 57°
2026-04-26 14:56 28.63548 104.18089 35150 ft 330 kts 54°
2026-04-26 14:56 28.66153 104.22298 35150 ft 323 kts 43°
2026-04-26 14:57 28.69546 104.25562 35154 ft 318 kts 31°
2026-04-26 14:57 28.72817 104.27464 35152 ft 318 kts 21°
2026-04-26 14:58 28.77865 104.28805 35147 ft 322 kts
2026-04-26 14:58 28.81612 104.28819 35148 ft 326 kts
2026-04-26 14:59 28.86153 104.28516 35146 ft 326 kts
2026-04-26 14:59 28.90687 104.28223 35148 ft 326 kts
2026-04-26 15:00 28.95222 104.27955 35149 ft 326 kts
2026-04-26 15:00 28.99759 104.27698 35148 ft 326 kts
2026-04-26 15:01 29.04289 104.27445 35149 ft 326 kts
2026-04-26 15:01 29.08723 104.27199 35149 ft 326 kts
2026-04-26 15:02 29.13258 104.26947 35149 ft 326 kts
2026-04-26 15:02 29.17794 104.26694 35149 ft 326 kts
2026-04-26 15:03 29.22326 104.26442 35150 ft 326 kts
2026-04-26 15:03 29.26858 104.26229 35143 ft 324 kts
2026-04-26 15:04 29.31309 104.26764 35149 ft 321 kts 12°
2026-04-26 15:04 29.35728 104.27535 35148 ft 321 kts 12°
2026-04-26 15:05 29.40144 104.28306 35149 ft 321 kts 12°
2026-04-26 15:05 29.44563 104.29067 35151 ft 321 kts 12°
2026-04-26 15:06 29.48954 104.29818 35147 ft 321 kts 12°
2026-04-26 15:06 29.53373 104.30574 35150 ft 321 kts 12°
2026-04-26 15:07 29.60000 104.31707 35150 ft 321 kts 12°
2026-04-26 15:07 29.64421 104.32464 35149 ft 321 kts 12°
2026-04-26 15:08 29.68837 104.33220 35151 ft 321 kts 12°
2026-04-26 15:08 29.73260 104.33978 35148 ft 321 kts 12°
2026-04-26 15:09 29.77677 104.34736 35149 ft 321 kts 12°
2026-04-26 15:09 29.82097 104.35495 35149 ft 321 kts 12°
2026-04-26 15:10 29.85772 104.36127 35150 ft 321 kts 12°
2026-04-26 15:10 29.90937 104.37016 35149 ft 321 kts 12°
2026-04-26 15:11 29.95355 104.37776 35149 ft 321 kts 12°
2026-04-26 15:11 29.99777 104.38539 35149 ft 321 kts 12°
2026-04-26 15:12 30.04197 104.39301 35149 ft 321 kts 12°
2026-04-26 15:12 30.08613 104.40064 35149 ft 321 kts 12°
2026-04-26 15:13 30.13033 104.40830 35149 ft 321 kts 12°
2026-04-26 15:13 30.17447 104.41602 35149 ft 321 kts 12°
2026-04-26 15:14 30.21867 104.42377 35150 ft 321 kts 12°
2026-04-26 15:14 30.26283 104.43150 35149 ft 321 kts 12°
2026-04-26 15:15 30.30701 104.43925 35149 ft 321 kts 12°
2026-04-26 15:15 30.35117 104.44700 35150 ft 321 kts 12°
2026-04-26 15:16 30.39533 104.45475 35149 ft 321 kts 12°
2026-04-26 15:16 30.43951 104.46251 35149 ft 321 kts 12°
2026-04-26 15:17 30.47621 104.46897 35149 ft 321 kts 12°
2026-04-26 15:17 30.52668 104.48169 35149 ft 318 kts 20°
2026-04-26 15:18 30.56640 104.50394 35143 ft 318 kts 32°
2026-04-26 15:18 30.60038 104.53709 35149 ft 322 kts 43°
2026-04-26 15:19 30.62687 104.57962 35150 ft 330 kts 55°
2026-04-26 15:19 30.64436 104.62964 35150 ft 339 kts 64°
2026-04-26 15:20 30.65757 104.68239 35148 ft 341 kts 65°
2026-04-26 15:20 30.67067 104.73524 35148 ft 340 kts 65°
2026-04-26 15:21 30.68396 104.78794 35149 ft 340 kts 65°
2026-04-26 15:21 30.69736 104.84064 35150 ft 340 kts 65°
2026-04-26 15:22 30.71076 104.89330 35150 ft 340 kts 65°
2026-04-26 15:22 30.72416 104.94601 35151 ft 340 kts 65°
2026-04-26 15:23 30.73753 104.99873 35150 ft 340 kts 65°
2026-04-26 15:23 30.75081 105.05115 35150 ft 340 kts 65°
2026-04-26 15:24 30.76414 105.10389 35139 ft 340 kts 65°
2026-04-26 15:24 30.77745 105.15664 35152 ft 340 kts 65°
2026-04-26 15:25 30.78859 105.20087 35151 ft 340 kts 65°
2026-04-26 15:25 30.80402 105.26221 35143 ft 340 kts 65°
2026-04-26 15:26 30.81727 105.31505 35150 ft 340 kts 65°
2026-04-26 15:26 30.83051 105.36790 35149 ft 340 kts 65°
2026-04-26 15:27 30.84351 105.42086 35150 ft 341 kts 66°
2026-04-26 15:27 30.85509 105.47461 35148 ft 343 kts 67°
2026-04-26 15:28 30.86640 105.52845 35148 ft 343 kts 67°
2026-04-26 15:28 30.87777 105.58229 35149 ft 342 kts 67°
2026-04-26 15:29 30.88915 105.63611 35149 ft 343 kts 67°
2026-04-26 15:30 30.91191 105.74383 35148 ft 343 kts 67°
2026-04-26 15:30 30.92325 105.79767 35151 ft 343 kts 67°
2026-04-26 15:31 30.94023 105.87856 35149 ft 343 kts 67°
2026-04-26 15:32 30.96800 106.01474 35148 ft 347 kts 72°
2026-04-26 15:33 30.97265 106.07139 35149 ft 353 kts 76°
2026-04-26 15:33 30.97571 106.12850 35151 ft 353 kts 76°
2026-04-26 15:34 30.97885 106.18556 35138 ft 353 kts 76°
2026-04-26 15:34 30.98211 106.24261 35150 ft 353 kts 76°
2026-04-26 15:35 30.98540 106.29969 35150 ft 353 kts 76°
2026-04-26 15:35 30.98868 106.35674 35151 ft 353 kts 76°
2026-04-26 15:36 30.99194 106.41381 35149 ft 353 kts 76°
2026-04-26 15:36 30.99517 106.47086 35146 ft 353 kts 76°
2026-04-26 15:37 30.99838 106.52795 35148 ft 353 kts 76°
2026-04-26 15:37 31.00157 106.58506 35149 ft 353 kts 76°
2026-04-26 15:38 31.00472 106.64214 35147 ft 353 kts 76°
2026-04-26 15:38 31.00786 106.69928 35150 ft 354 kts 76°
2026-04-26 15:39 31.01045 106.74675 35148 ft 353 kts 76°
2026-04-26 15:39 31.01304 106.79461 35148 ft 353 kts 76°
2026-04-26 15:40 31.01660 106.86100 35150 ft 353 kts 76°
2026-04-26 15:40 31.01964 106.91812 35150 ft 353 kts 76°
2026-04-26 15:41 31.02265 106.97528 35151 ft 354 kts 76°
2026-04-26 15:41 31.02544 107.03251 35148 ft 353 kts 76°
2026-04-26 15:42 31.02827 107.08971 35148 ft 354 kts 76°
2026-04-26 15:42 31.03115 107.14688 35150 ft 353 kts 76°
2026-04-26 15:43 31.03405 107.20406 35152 ft 353 kts 76°
2026-04-26 15:44 31.03838 107.28986 35149 ft 353 kts 76°
2026-04-26 15:44 31.04262 107.37531 35141 ft 353 kts 76°
2026-04-26 15:45 31.04633 107.46124 35150 ft 354 kts 77°
2026-04-26 15:46 31.04871 107.54755 35151 ft 355 kts 78°
2026-04-26 15:46 31.04969 107.59584 35148 ft 355 kts 78°
2026-04-26 15:47 31.05161 107.69162 35150 ft 356 kts 78°
2026-04-26 15:48 31.05271 107.74928 35138 ft 356 kts 78°
2026-04-26 15:48 31.05379 107.80695 35151 ft 356 kts 78°
2026-04-26 15:49 31.05487 107.86469 35150 ft 356 kts 78°
2026-04-26 15:49 31.05593 107.92236 35151 ft 356 kts 78°
2026-04-26 15:50 31.05696 107.98001 35151 ft 355 kts 78°
2026-04-26 15:50 31.05797 108.03770 35146 ft 356 kts 78°
2026-04-26 15:51 31.05895 108.09542 35150 ft 356 kts 78°
2026-04-26 15:51 31.05990 108.15312 35150 ft 356 kts 78°
2026-04-26 15:52 31.06083 108.21082 35151 ft 356 kts 78°
2026-04-26 15:52 31.06174 108.26851 35147 ft 356 kts 78°
2026-04-26 15:53 31.06260 108.32583 35149 ft 355 kts 78°
2026-04-26 15:53 31.06346 108.38352 35152 ft 356 kts 78°
2026-04-26 15:54 31.06429 108.44132 35141 ft 356 kts 78°
2026-04-26 15:54 31.06508 108.49901 35152 ft 356 kts 78°
2026-04-26 15:55 31.06586 108.55674 35150 ft 356 kts 78°
2026-04-26 15:55 31.06661 108.61450 35150 ft 356 kts 78°
2026-04-26 15:56 31.06721 108.67231 35150 ft 357 kts 79°
2026-04-26 15:56 31.06772 108.73012 35154 ft 357 kts 79°
2026-04-26 15:57 31.06831 108.78796 35147 ft 357 kts 79°
2026-04-26 15:57 31.06893 108.84568 35151 ft 356 kts 79°
2026-04-26 15:58 31.06956 108.90352 35155 ft 357 kts 79°
2026-04-26 15:58 31.07016 108.96128 35157 ft 356 kts 79°
2026-04-26 15:59 31.07072 109.01914 35152 ft 357 kts 79°
2026-04-26 15:59 31.07125 109.07695 35148 ft 356 kts 79°
2026-04-26 16:00 31.07178 109.13479 35150 ft 357 kts 79°
2026-04-26 16:00 31.07226 109.19264 35149 ft 356 kts 79°
2026-04-26 16:01 31.07272 109.25045 35151 ft 356 kts 79°
2026-04-26 16:01 31.07317 109.30833 35147 ft 357 kts 79°
2026-04-26 16:02 31.07358 109.36615 35138 ft 357 kts 79°
2026-04-26 16:02 31.07397 109.42402 35159 ft 357 kts 79°
2026-04-26 16:03 31.07433 109.48156 35148 ft 356 kts 79°
2026-04-26 16:03 31.07467 109.53946 35150 ft 357 kts 79°
2026-04-26 16:04 31.07498 109.59743 35138 ft 357 kts 79°
2026-04-26 16:04 31.07508 109.65536 35148 ft 357 kts 79°
2026-04-26 16:05 31.07223 109.71366 35147 ft 371 kts 91°
2026-04-26 16:05 31.05753 109.77234 35154 ft 381 kts 97°
2026-04-26 16:06 31.04032 109.83094 35149 ft 382 kts 97°
2026-04-26 16:06 31.02343 109.88946 35152 ft 380 kts 97°
2026-04-26 16:07 31.00685 109.94798 35155 ft 381 kts 97°
2026-04-26 16:07 30.99034 110.00654 35150 ft 380 kts 96°
2026-04-26 16:08 30.97383 110.06510 35148 ft 381 kts 96°
2026-04-26 16:08 30.95728 110.12364 35153 ft 380 kts 96°
2026-04-26 16:09 30.94071 110.18219 35148 ft 381 kts 97°
2026-04-26 16:09 30.92410 110.24070 35156 ft 380 kts 97°
2026-04-26 16:10 30.90746 110.29926 35144 ft 381 kts 96°
2026-04-26 16:10 30.89092 110.35734 35154 ft 381 kts 97°
2026-04-26 16:11 30.87422 110.41583 35138 ft 380 kts 97°
2026-04-26 16:11 30.85754 110.47419 35149 ft 381 kts 97°
2026-04-26 16:12 30.84082 110.53259 35147 ft 381 kts 97°
2026-04-26 16:12 30.81563 110.62030 35149 ft 381 kts 97°
2026-04-26 16:13 30.79864 110.67862 35156 ft 380 kts 97°
2026-04-26 16:13 30.78166 110.73697 35150 ft 381 kts 97°
2026-04-26 16:14 30.76474 110.79534 35157 ft 381 kts 97°
2026-04-26 16:15 30.73937 110.88291 35144 ft 381 kts 97°
2026-04-26 16:15 30.72242 110.94129 35152 ft 381 kts 97°
2026-04-26 16:16 30.69695 111.02879 35150 ft 381 kts 97°
2026-04-26 16:16 30.67993 111.08713 35151 ft 381 kts 97°
2026-04-26 16:17 30.66290 111.14541 35148 ft 381 kts 97°
2026-04-26 16:17 30.64584 111.20369 35150 ft 381 kts 97°
2026-04-26 16:18 30.62738 111.29079 35152 ft 355 kts 78°
2026-04-26 16:19 30.63744 111.37411 35149 ft 346 kts 70°
2026-04-26 16:20 30.64940 111.45696 35148 ft 347 kts 71°
2026-04-26 16:20 30.65613 111.54162 35148 ft 353 kts 76°
2026-04-26 16:21 30.65893 111.59861 35149 ft 353 kts 76°
2026-04-26 16:21 30.66177 111.65558 35149 ft 353 kts 76°
2026-04-26 16:22 30.66463 111.71256 35149 ft 353 kts 76°
2026-04-26 16:22 30.66752 111.76950 35147 ft 353 kts 76°
2026-04-26 16:23 30.67042 111.82645 35150 ft 353 kts 76°
2026-04-26 16:23 30.67330 111.88349 35149 ft 353 kts 76°
2026-04-26 16:24 30.67616 111.94042 35149 ft 353 kts 76°
2026-04-26 16:24 30.67956 111.99729 35149 ft 352 kts 75°
2026-04-26 16:25 30.68345 112.05395 35149 ft 352 kts 75°
2026-04-26 16:25 30.68737 112.11062 35149 ft 352 kts 75°
2026-04-26 16:26 30.69061 112.15775 35149 ft 352 kts 75°
2026-04-26 16:26 30.69510 112.22363 35149 ft 352 kts 75°
2026-04-26 16:27 30.69893 112.28033 35149 ft 352 kts 75°
2026-04-26 16:27 30.70276 112.33743 35149 ft 352 kts 75°
2026-04-26 16:28 30.70652 112.39382 35148 ft 352 kts 75°
2026-04-26 16:28 30.71028 112.45053 35149 ft 352 kts 75°
2026-04-26 16:29 30.71401 112.50729 35148 ft 352 kts 75°
2026-04-26 16:29 30.71772 112.56403 35150 ft 352 kts 75°
2026-04-26 16:30 30.72081 112.61159 35148 ft 352 kts 75°
2026-04-26 16:30 30.72447 112.66840 35149 ft 352 kts 75°
2026-04-26 16:31 30.72811 112.72517 35149 ft 352 kts 76°
2026-04-26 16:31 30.73173 112.78197 35150 ft 352 kts 76°
2026-04-26 16:32 30.73532 112.83876 35149 ft 352 kts 76°
2026-04-26 16:32 30.73889 112.89561 35149 ft 352 kts 76°
2026-04-26 16:33 30.74228 112.95207 35149 ft 353 kts 76°
2026-04-26 16:33 30.74562 113.00895 35149 ft 353 kts 76°
2026-04-26 16:34 30.74904 113.06581 35149 ft 353 kts 76°
2026-04-26 16:34 30.75248 113.12265 35149 ft 353 kts 76°
2026-04-26 16:35 30.75476 113.17984 35149 ft 355 kts 78°
2026-04-26 16:35 30.75624 113.23726 35149 ft 355 kts 78°
2026-04-26 16:36 30.75768 113.29464 35148 ft 355 kts 78°
2026-04-26 16:36 30.75914 113.35205 35149 ft 355 kts 78°
2026-04-26 16:37 30.76060 113.40944 35149 ft 355 kts 78°
2026-04-26 16:37 30.76204 113.46685 35148 ft 355 kts 78°
2026-04-26 16:38 30.76346 113.52427 35149 ft 355 kts 78°
2026-04-26 16:38 30.76482 113.58051 35149 ft 355 kts 78°
2026-04-26 16:39 30.76618 113.63795 35149 ft 355 kts 78°
2026-04-26 16:39 30.76751 113.69499 35149 ft 355 kts 78°
2026-04-26 16:40 30.76883 113.75243 35149 ft 355 kts 78°
2026-04-26 16:40 30.77011 113.80990 35149 ft 355 kts 78°
2026-04-26 16:41 30.77138 113.86732 35149 ft 355 kts 78°
2026-04-26 16:41 30.77262 113.92480 35149 ft 356 kts 78°
2026-04-26 16:42 30.77383 113.98226 35149 ft 356 kts 78°
2026-04-26 16:42 30.77539 114.03967 35148 ft 354 kts 77°
2026-04-26 16:43 30.77759 114.09688 35149 ft 354 kts 77°
2026-04-26 16:43 30.77989 114.15321 35149 ft 354 kts 77°
2026-04-26 16:44 30.78470 114.20953 35149 ft 342 kts 66°
2026-04-26 16:44 30.80012 114.26101 35149 ft 336 kts 60°
2026-04-26 16:45 30.81724 114.31152 35149 ft 336 kts 61°
2026-04-26 16:45 30.83398 114.36230 35149 ft 336 kts 61°
2026-04-26 16:46 30.85052 114.41325 35149 ft 336 kts 61°
2026-04-26 16:46 30.86700 114.46421 35149 ft 336 kts 61°
2026-04-26 16:47 30.88342 114.51480 35148 ft 336 kts 61°
2026-04-26 16:47 30.89997 114.56573 35148 ft 336 kts 61°
2026-04-26 16:48 30.91652 114.61669 35149 ft 336 kts 61°
2026-04-26 16:48 30.93304 114.66763 35149 ft 336 kts 61°
2026-04-26 16:49 30.94954 114.71861 35148 ft 336 kts 61°
2026-04-26 16:49 30.96603 114.76963 35149 ft 336 kts 61°
2026-04-26 16:50 30.98249 114.82064 35149 ft 336 kts 61°
2026-04-26 16:50 30.99894 114.87169 35149 ft 337 kts 61°
2026-04-26 16:51 31.01538 114.92280 35149 ft 337 kts 61°
2026-04-26 16:51 31.03170 114.97392 35150 ft 337 kts 61°
2026-04-26 16:52 31.04527 115.01647 35149 ft 337 kts 61°
2026-04-26 16:52 31.06436 115.07625 35156 ft 336 kts 61°
2026-04-26 16:53 31.08068 115.12733 35149 ft 336 kts 61°
2026-04-26 16:53 31.09700 115.17849 35151 ft 337 kts 61°
2026-04-26 16:54 31.11316 115.22938 35154 ft 337 kts 62°
2026-04-26 16:54 31.12933 115.28066 35147 ft 337 kts 61°
2026-04-26 16:55 31.14582 115.33179 35151 ft 336 kts 61°
2026-04-26 16:55 31.16238 115.38284 35149 ft 336 kts 61°
2026-04-26 16:56 31.18721 115.45946 35151 ft 337 kts 61°
2026-04-26 16:57 31.20374 115.51058 35148 ft 336 kts 61°
2026-04-26 16:57 31.22849 115.58732 35144 ft 336 kts 61°
2026-04-26 16:58 31.24220 115.62988 35148 ft 337 kts 61°
2026-04-26 16:59 31.26970 115.71544 35157 ft 337 kts 61°
2026-04-26 17:00 31.30113 115.81384 35055 ft 337 kts 62°
2026-04-26 17:00 31.32568 115.89084 35049 ft 337 kts 61°
2026-04-26 17:01 31.34234 115.94199 35047 ft 336 kts 61°
2026-04-26 17:01 31.35903 115.99309 35047 ft 336 kts 61°
2026-04-26 17:02 31.37572 116.04426 35047 ft 337 kts 61°
2026-04-26 17:02 31.39240 116.09550 35042 ft 337 kts 61°
2026-04-26 17:03 31.40906 116.14675 35048 ft 336 kts 61°
2026-04-26 17:03 31.42566 116.19791 35050 ft 336 kts 61°
2026-04-26 17:04 31.44228 116.24918 35049 ft 336 kts 61°
2026-04-26 17:04 31.45886 116.30042 35049 ft 337 kts 61°
2026-04-26 17:05 31.47543 116.35173 35049 ft 337 kts 61°
2026-04-26 17:05 31.49186 116.40266 35049 ft 337 kts 61°
2026-04-26 17:06 31.50838 116.45398 35045 ft 337 kts 61°
2026-04-26 17:06 31.52488 116.50531 35049 ft 337 kts 61°
2026-04-26 17:07 31.54136 116.55667 35049 ft 337 kts 61°
2026-04-26 17:07 31.55783 116.60805 35048 ft 337 kts 61°
2026-04-26 17:08 31.57427 116.65945 35049 ft 337 kts 61°
2026-04-26 17:08 31.59071 116.71090 35050 ft 337 kts 61°
2026-04-26 17:09 31.60445 116.75397 35049 ft 337 kts 61°
2026-04-26 17:09 31.62339 116.81386 35050 ft 337 kts 62°
2026-04-26 17:10 31.63961 116.86546 35048 ft 337 kts 62°
2026-04-26 17:10 31.65588 116.91699 35047 ft 337 kts 62°
2026-04-26 17:11 31.67219 116.96855 35050 ft 337 kts 62°
2026-04-26 17:11 31.68840 117.02015 35049 ft 337 kts 62°
2026-04-26 17:12 31.71234 117.09786 35048 ft 337 kts 62°
2026-04-26 17:13 31.73624 117.17556 35049 ft 337 kts 62°
2026-04-26 17:14 31.76011 117.25331 35046 ft 337 kts 62°
2026-04-26 17:14 31.77324 117.30663 35047 ft 349 kts 74°
2026-04-26 17:14 31.77394 117.33555 35050 ft 359 kts 82°
2026-04-26 17:15 31.76753 117.42418 35048 ft 364 kts 84°
2026-04-26 17:16 31.76296 117.48337 35049 ft 363 kts 84°
2026-04-26 17:16 31.75872 117.54245 35049 ft 363 kts 84°
2026-04-26 17:17 31.75459 117.60156 35050 ft 363 kts 84°
2026-04-26 17:17 31.75048 117.66064 35049 ft 363 kts 84°
2026-04-26 17:18 31.74637 117.71932 35048 ft 363 kts 84°
2026-04-26 17:18 31.74220 117.77843 35050 ft 363 kts 84°
2026-04-26 17:19 31.73590 117.86705 35049 ft 363 kts 84°
2026-04-26 17:19 31.73167 117.92617 35050 ft 363 kts 84°
2026-04-26 17:20 31.72810 117.97568 35049 ft 363 kts 84°
2026-04-26 17:20 31.72311 118.04434 35050 ft 363 kts 84°
2026-04-26 17:21 31.71879 118.10344 35048 ft 363 kts 84°
2026-04-26 17:21 31.71451 118.16257 35048 ft 363 kts 84°
2026-04-26 17:22 31.71035 118.22161 35048 ft 363 kts 84°
2026-04-26 17:22 31.70622 118.28068 35050 ft 363 kts 84°
2026-04-26 17:23 31.70208 118.33976 35049 ft 363 kts 84°
2026-04-26 17:23 31.69793 118.39884 35048 ft 363 kts 84°
2026-04-26 17:24 31.69374 118.45790 35049 ft 363 kts 84°
2026-04-26 17:24 31.68959 118.51613 35051 ft 363 kts 84°
2026-04-26 17:25 31.68535 118.57519 35049 ft 363 kts 84°
2026-04-26 17:25 31.68108 118.63425 35047 ft 363 kts 84°
2026-04-26 17:26 31.67678 118.69334 35050 ft 363 kts 84°
2026-04-26 17:26 31.67246 118.75242 35048 ft 363 kts 84°
2026-04-26 17:27 31.66813 118.81110 35049 ft 363 kts 84°
2026-04-26 17:27 31.66372 118.87058 35049 ft 363 kts 84°
2026-04-26 17:28 31.65935 118.92924 35049 ft 363 kts 84°
2026-04-26 17:28 31.65489 118.98830 35050 ft 364 kts 84°
2026-04-26 17:29 31.65116 119.03691 35047 ft 363 kts 83°
2026-04-26 17:29 31.64727 119.10542 35049 ft 361 kts 82°
2026-04-26 17:30 31.64441 119.16429 35047 ft 361 kts 82°
2026-04-26 17:30 31.64180 119.22307 35049 ft 361 kts 82°
2026-04-26 17:31 31.63919 119.28188 35050 ft 361 kts 82°
2026-04-26 17:31 31.63654 119.34070 35049 ft 361 kts 82°
2026-04-26 17:32 31.63383 119.39953 35050 ft 361 kts 82°
2026-04-26 17:32 31.63103 119.45835 35048 ft 361 kts 82°
2026-04-26 17:33 31.62829 119.51595 35048 ft 361 kts 82°
2026-04-26 17:34 31.62407 119.60421 35050 ft 361 kts 82°
2026-04-26 17:34 31.62123 119.66301 35049 ft 361 kts 82°
2026-04-26 17:35 31.61851 119.72099 35048 ft 361 kts 82°
2026-04-26 17:35 31.61583 119.77981 35050 ft 361 kts 82°
2026-04-26 17:36 31.61314 119.83859 35048 ft 361 kts 82°
2026-04-26 17:36 31.61044 119.89741 35048 ft 361 kts 82°
2026-04-26 17:37 31.60771 119.95619 35048 ft 361 kts 82°
2026-04-26 17:37 31.60495 120.01499 35049 ft 361 kts 82°
2026-04-26 17:38 31.60075 120.10322 35048 ft 361 kts 82°
2026-04-26 17:38 31.59793 120.16205 35048 ft 361 kts 82°
2026-04-26 17:39 31.59507 120.22086 35049 ft 361 kts 82°
2026-04-26 17:39 31.59223 120.27881 35048 ft 361 kts 82°
2026-04-26 17:40 31.58851 120.31792 35048 ft 372 kts 91°
2026-04-26 17:40 31.57008 120.38684 35050 ft 383 kts 98°
2026-04-26 17:41 31.55196 120.44554 35050 ft 383 kts 98°
2026-04-26 17:41 31.53415 120.50429 35049 ft 382 kts 97°
2026-04-26 17:42 31.51362 120.57299 35049 ft 382 kts 97°
2026-04-26 17:42 31.49907 120.62183 35050 ft 382 kts 97°
2026-04-26 17:43 31.47869 120.69015 35049 ft 382 kts 97°
2026-04-26 17:43 31.46400 120.73934 35048 ft 382 kts 97°
2026-04-26 17:44 31.44642 120.79806 35048 ft 382 kts 97°
2026-04-26 17:44 31.42892 120.85640 35050 ft 382 kts 97°
2026-04-26 17:45 31.41128 120.91510 35049 ft 382 kts 97°
2026-04-26 17:45 31.39361 120.97379 35049 ft 382 kts 97°
2026-04-26 17:46 31.37593 121.03242 35049 ft 382 kts 98°
2026-04-26 17:46 31.35821 121.09106 35047 ft 382 kts 98°
2026-04-26 17:47 31.34308 121.14018 35049 ft 383 kts 98°
2026-04-26 17:47 31.32197 121.20812 35049 ft 383 kts 98°
2026-04-26 17:48 31.30380 121.26677 35048 ft 383 kts 98°
2026-04-26 17:48 31.28568 121.32529 35049 ft 382 kts 98°
2026-04-26 17:49 31.26983 121.38413 35050 ft 378 kts 94°
2026-04-26 17:49 31.25559 121.44314 35049 ft 377 kts 94°
2026-04-26 17:50 31.24142 121.50216 35049 ft 377 kts 94°
2026-04-26 17:50 31.22713 121.56114 35050 ft 377 kts 94°
2026-04-26 17:51 31.21277 121.62012 35049 ft 377 kts 94°
2026-04-26 17:51 31.19836 121.67911 35050 ft 378 kts 94°
2026-04-26 17:52 31.18394 121.73801 35050 ft 378 kts 94°
2026-04-26 17:52 31.17565 121.79677 35045 ft 354 kts 76°
2026-04-26 17:53 31.18399 121.85195 35050 ft 343 kts 67°
2026-04-26 17:54 31.20088 121.93312 35046 ft 343 kts 68°
2026-04-26 17:54 31.21162 121.98748 35050 ft 344 kts 68°
2026-04-26 17:55 31.22212 122.04196 35049 ft 344 kts 68°
2026-04-26 17:55 31.23252 122.09648 35050 ft 344 kts 68°
2026-04-26 17:56 31.24282 122.15069 35050 ft 344 kts 68°
2026-04-26 17:57 31.26348 122.25986 35049 ft 344 kts 68°
2026-04-26 17:57 31.27377 122.31447 35049 ft 344 kts 68°
2026-04-26 17:58 31.29429 122.42373 35049 ft 344 kts 68°
2026-04-26 17:59 31.30987 122.50603 35049 ft 344 kts 68°
2026-04-26 17:59 31.32024 122.56022 35047 ft 344 kts 68°
2026-04-26 18:00 31.33070 122.61479 35049 ft 344 kts 68°
2026-04-26 18:00 31.34115 122.66937 35050 ft 344 kts 68°
2026-04-26 18:01 31.35158 122.72396 35049 ft 344 kts 68°
2026-04-26 18:01 31.36201 122.77857 35049 ft 344 kts 68°
2026-04-26 18:02 31.37076 122.82389 35047 ft 344 kts 68°
2026-04-26 18:02 31.38314 122.88765 35048 ft 344 kts 68°
2026-04-26 18:03 31.39373 122.94218 35050 ft 344 kts 68°
2026-04-26 18:03 31.40430 122.99673 35049 ft 344 kts 68°
2026-04-26 18:04 31.41486 123.05131 35049 ft 344 kts 68°
2026-04-26 18:05 31.43065 123.13321 35049 ft 344 kts 68°
2026-04-26 18:05 31.44114 123.18781 35049 ft 344 kts 68°
2026-04-26 18:06 31.45162 123.24242 35050 ft 344 kts 68°
2026-04-26 18:06 31.46207 123.29707 35050 ft 344 kts 68°
2026-04-26 18:07 31.47250 123.35174 35049 ft 344 kts 68°
2026-04-26 18:07 31.48291 123.40642 35047 ft 344 kts 68°
2026-04-26 18:08 31.49329 123.46111 35048 ft 344 kts 68°
2026-04-26 18:08 31.50404 123.51560 35049 ft 343 kts 67°
2026-04-26 18:09 31.51581 123.56964 35050 ft 342 kts 66°
2026-04-26 18:09 31.52770 123.62325 35048 ft 342 kts 66°
2026-04-26 18:10 31.53965 123.67721 35048 ft 342 kts 66°
2026-04-26 18:10 31.55157 123.73116 35049 ft 342 kts 66°
2026-04-26 18:11 31.56347 123.78514 35050 ft 342 kts 66°
2026-04-26 18:11 31.57535 123.83917 35049 ft 342 kts 66°
2026-04-26 18:12 31.58720 123.89319 35049 ft 342 kts 66°
2026-04-26 18:12 31.59904 123.94725 35049 ft 342 kts 66°
2026-04-26 18:13 31.61086 124.00130 35050 ft 342 kts 66°
2026-04-26 18:13 31.62278 124.05532 35049 ft 342 kts 66°
2026-04-26 18:14 31.63478 124.10934 35050 ft 342 kts 66°
2026-04-26 18:14 31.64678 124.16329 35049 ft 342 kts 66°
2026-04-26 18:15 31.65878 124.21732 35049 ft 342 kts 66°
2026-04-26 18:15 31.67075 124.27134 35049 ft 342 kts 66°
2026-04-26 18:16 31.68270 124.32537 35050 ft 342 kts 66°
2026-04-26 18:16 31.70059 124.40646 35046 ft 342 kts 66°
2026-04-26 18:17 31.71249 124.46055 35050 ft 342 kts 66°
2026-04-26 18:17 31.72436 124.51464 35047 ft 342 kts 66°
2026-04-26 18:18 31.73621 124.56875 35049 ft 342 kts 66°
2026-04-26 18:18 31.74797 124.62255 35047 ft 342 kts 66°
2026-04-26 18:19 31.75986 124.67707 35049 ft 342 kts 66°
2026-04-26 18:19 31.77165 124.73125 35050 ft 342 kts 66°
2026-04-26 18:20 31.78334 124.78507 35049 ft 342 kts 66°
2026-04-26 18:20 31.79119 124.82130 35048 ft 342 kts 66°
2026-04-26 18:21 31.80680 124.89350 35050 ft 342 kts 66°
2026-04-26 18:21 31.81846 124.94775 35050 ft 343 kts 67°
2026-04-26 18:22 31.82736 125.00316 35048 ft 354 kts 78°
2026-04-26 18:22 31.82584 125.03259 35049 ft 366 kts 86°
2026-04-26 18:22 31.82160 125.06229 35050 ft 371 kts 89°
2026-04-26 18:23 31.81120 125.12182 35050 ft 372 kts 90°
2026-04-26 18:23 31.80097 125.18136 35050 ft 371 kts 90°
2026-04-26 18:24 31.79112 125.24088 35048 ft 371 kts 89°
2026-04-26 18:24 31.78142 125.30036 35049 ft 371 kts 89°
2026-04-26 18:25 31.77172 125.35986 35050 ft 371 kts 89°
2026-04-26 18:25 31.76199 125.41940 35049 ft 371 kts 89°
2026-04-26 18:26 31.75224 125.47889 35049 ft 371 kts 89°
2026-04-26 18:26 31.74253 125.53797 35049 ft 371 kts 89°
2026-04-26 18:27 31.73272 125.59745 35050 ft 371 kts 89°
2026-04-26 18:27 31.72417 125.65681 35047 ft 361 kts 82°
2026-04-26 18:28 31.72550 125.68556 35045 ft 346 kts 71°
2026-04-26 18:28 31.73053 125.71297 35050 ft 342 kts 66°
2026-04-26 18:28 31.74312 125.76669 35049 ft 341 kts 65°
2026-04-26 18:29 31.75565 125.82049 35049 ft 342 kts 66°
2026-04-26 18:29 31.76576 125.86535 35049 ft 342 kts 66°
2026-04-26 18:30 31.77775 125.91942 35049 ft 342 kts 66°
2026-04-26 18:30 31.78962 125.97357 35048 ft 342 kts 66°
2026-04-26 18:31 31.80146 126.02772 35049 ft 342 kts 66°
2026-04-26 18:31 31.81329 126.08189 35049 ft 342 kts 66°
2026-04-26 18:32 31.82704 126.14487 35049 ft 342 kts 66°
2026-04-26 18:32 31.83693 126.19030 35049 ft 342 kts 66°
2026-04-26 18:33 31.84871 126.24451 35050 ft 342 kts 66°
2026-04-26 18:33 31.86048 126.29877 35050 ft 342 kts 66°
2026-04-26 18:34 31.87214 126.35267 35050 ft 342 kts 66°
2026-04-26 18:34 31.88386 126.40694 35050 ft 342 kts 67°
2026-04-26 18:35 31.89564 126.46161 35049 ft 342 kts 67°
2026-04-26 18:35 31.90730 126.51552 35050 ft 342 kts 66°
2026-04-26 18:36 31.91924 126.57011 35050 ft 342 kts 66°
2026-04-26 18:36 31.93106 126.62394 35049 ft 342 kts 66°
2026-04-26 18:37 31.94296 126.67814 35050 ft 342 kts 66°
2026-04-26 18:37 31.95484 126.73238 35050 ft 342 kts 66°
2026-04-26 18:38 31.96670 126.78663 35050 ft 342 kts 66°
2026-04-26 18:38 31.97855 126.84092 35049 ft 342 kts 66°
2026-04-26 18:39 31.99037 126.89519 35049 ft 342 kts 66°
2026-04-26 18:39 32.00216 126.94948 35049 ft 342 kts 66°
2026-04-26 18:40 32.01394 127.00385 35049 ft 342 kts 66°
2026-04-26 18:40 32.02569 127.05819 35047 ft 342 kts 66°
2026-04-26 18:41 32.03797 127.11222 35048 ft 338 kts 62°
2026-04-26 18:41 32.05555 127.16309 35049 ft 334 kts 58°
2026-04-26 18:42 32.07452 127.21309 35049 ft 334 kts 58°
2026-04-26 18:42 32.09345 127.26305 35049 ft 334 kts 58°
2026-04-26 18:43 32.11228 127.31312 35049 ft 334 kts 58°
2026-04-26 18:43 32.13106 127.36325 35049 ft 334 kts 58°
2026-04-26 18:44 32.14978 127.41344 35048 ft 334 kts 58°
2026-04-26 18:44 32.16850 127.46362 35048 ft 334 kts 58°
2026-04-26 18:45 32.18722 127.51382 35048 ft 334 kts 58°
2026-04-26 18:45 32.20591 127.56402 35049 ft 334 kts 58°
2026-04-26 18:46 32.22460 127.61428 35049 ft 334 kts 59°
2026-04-26 18:46 32.24327 127.66454 35049 ft 334 kts 59°
2026-04-26 18:47 32.26192 127.71484 35049 ft 334 kts 59°
2026-04-26 18:47 32.28054 127.76515 35049 ft 334 kts 59°
2026-04-26 18:48 32.29915 127.81549 35049 ft 334 kts 59°
2026-04-26 18:48 32.31775 127.86586 35048 ft 334 kts 59°
2026-04-26 18:49 32.33632 127.91624 35049 ft 334 kts 59°
2026-04-26 18:49 32.35475 127.96632 35049 ft 334 kts 59°
2026-04-26 18:50 32.37328 128.01674 35050 ft 334 kts 59°
2026-04-26 18:50 32.39179 128.06719 35049 ft 334 kts 59°
2026-04-26 18:51 32.41029 128.11769 35048 ft 334 kts 59°
2026-04-26 18:51 32.42877 128.16818 35049 ft 334 kts 59°
2026-04-26 18:52 32.44411 128.21019 35049 ft 334 kts 59°
2026-04-26 18:52 32.46558 128.26932 35049 ft 335 kts 59°
2026-04-26 18:53 32.48385 128.32004 35049 ft 335 kts 59°
2026-04-26 18:53 32.50217 128.37068 35049 ft 334 kts 59°
2026-04-26 18:54 32.52053 128.42130 35049 ft 334 kts 59°
2026-04-26 18:54 32.53889 128.47198 35049 ft 335 kts 59°
2026-04-26 18:55 32.55723 128.52265 35048 ft 335 kts 59°
2026-04-26 18:55 32.57555 128.57335 35049 ft 335 kts 59°
2026-04-26 18:56 32.59385 128.62407 35049 ft 335 kts 59°
2026-04-26 18:56 32.61202 128.67448 35049 ft 334 kts 59°
2026-04-26 18:57 32.62732 128.71700 35047 ft 335 kts 59°
2026-04-26 18:57 32.64853 128.77604 35048 ft 335 kts 59°
2026-04-26 18:58 32.66676 128.82687 35048 ft 335 kts 59°
2026-04-26 18:58 32.68128 128.88000 35048 ft 342 kts 67°
2026-04-26 18:59 32.69243 128.93505 35046 ft 343 kts 68°
2026-04-26 18:59 32.70341 128.99018 35049 ft 343 kts 68°
2026-04-26 19:00 32.71450 129.04527 35050 ft 343 kts 67°
2026-04-26 19:00 32.72564 129.10036 35050 ft 343 kts 67°
2026-04-26 19:01 32.73677 129.15544 35049 ft 343 kts 67°
2026-04-26 19:01 32.74790 129.21056 35048 ft 343 kts 67°
2026-04-26 19:02 32.75899 129.26566 35049 ft 343 kts 67°
2026-04-26 19:02 32.76819 129.31146 35048 ft 343 kts 68°
2026-04-26 19:03 32.78111 129.37594 35049 ft 343 kts 68°
2026-04-26 19:03 32.79214 129.43110 35049 ft 343 kts 68°
2026-04-26 19:04 32.80315 129.48631 35050 ft 343 kts 68°
2026-04-26 19:04 32.81412 129.54149 35049 ft 343 kts 68°
2026-04-26 19:05 32.83055 129.62433 35048 ft 343 kts 68°
2026-04-26 19:06 32.84147 129.67958 35047 ft 343 kts 68°
2026-04-26 19:06 32.85185 129.73512 35050 ft 346 kts 70°
2026-04-26 19:07 32.86015 129.79156 35049 ft 347 kts 71°
2026-04-26 19:07 32.86812 129.84775 35047 ft 347 kts 71°
2026-04-26 19:08 32.87622 129.90427 35049 ft 347 kts 71°
2026-04-26 19:08 32.88435 129.96081 35048 ft 347 kts 71°
2026-04-26 19:09 32.89248 130.01736 35049 ft 347 kts 71°
2026-04-26 19:09 32.90058 130.07392 35049 ft 347 kts 71°
2026-04-26 19:10 32.90866 130.13045 35048 ft 347 kts 71°
2026-04-26 19:10 32.91673 130.18706 35047 ft 347 kts 71°
2026-04-26 19:11 32.92476 130.24365 35050 ft 347 kts 71°
2026-04-26 19:11 32.93277 130.30026 35050 ft 347 kts 71°
2026-04-26 19:12 32.94075 130.35690 35049 ft 347 kts 71°
2026-04-26 19:12 32.94871 130.41355 35047 ft 347 kts 71°
2026-04-26 19:13 32.95665 130.47024 35049 ft 347 kts 71°
2026-04-26 19:13 32.96456 130.52691 35046 ft 347 kts 71°
2026-04-26 19:14 32.97244 130.58360 35048 ft 347 kts 71°
2026-04-26 19:14 32.98030 130.64029 35050 ft 347 kts 71°
2026-04-26 19:15 32.98812 130.69702 35049 ft 347 kts 71°
2026-04-26 19:15 32.99571 130.75383 35050 ft 347 kts 71°
2026-04-26 19:16 33.00336 130.81064 35052 ft 347 kts 71°
2026-04-26 19:16 33.01108 130.86746 35049 ft 347 kts 71°
2026-04-26 19:17 33.01749 130.91461 35048 ft 347 kts 71°
2026-04-26 19:17 33.02650 130.98099 35054 ft 347 kts 71°
2026-04-26 19:18 33.03288 131.02822 35051 ft 347 kts 71°
2026-04-26 19:18 33.04179 131.09428 35049 ft 347 kts 71°
2026-04-26 19:19 33.04818 131.14189 35047 ft 347 kts 71°
2026-04-26 19:19 33.05580 131.19873 35049 ft 347 kts 71°
2026-04-26 19:20 33.06333 131.25525 35047 ft 348 kts 71°
2026-04-26 19:20 33.07090 131.31216 35050 ft 347 kts 71°
2026-04-26 19:21 33.07844 131.36908 35048 ft 347 kts 71°
2026-04-26 19:21 33.08589 131.42642 35050 ft 348 kts 71°
2026-04-26 19:22 33.09324 131.48300 35050 ft 348 kts 71°
2026-04-26 19:22 33.10070 131.53996 35047 ft 347 kts 71°
2026-04-26 19:23 33.10815 131.59692 35050 ft 348 kts 71°
2026-04-26 19:23 33.11559 131.65390 35048 ft 348 kts 71°
2026-04-26 19:24 33.12300 131.71084 35049 ft 348 kts 71°
2026-04-26 19:24 33.13408 131.79639 35046 ft 348 kts 71°
2026-04-26 19:25 33.14020 131.84379 35049 ft 348 kts 71°
2026-04-26 19:25 33.14877 131.91046 35050 ft 348 kts 71°
2026-04-26 19:26 33.15607 131.96753 35049 ft 348 kts 71°
2026-04-26 19:26 33.16335 132.02458 35049 ft 348 kts 71°
2026-04-26 19:27 33.17060 132.08167 35049 ft 348 kts 72°
2026-04-26 19:27 33.17778 132.13880 35047 ft 348 kts 72°
2026-04-26 19:28 33.18477 132.19559 35049 ft 348 kts 72°
2026-04-26 19:28 33.19187 132.25273 35049 ft 348 kts 72°
2026-04-26 19:29 33.19900 132.30989 35049 ft 348 kts 72°
2026-04-26 19:29 33.20612 132.36702 35050 ft 348 kts 72°
2026-04-26 19:30 33.21323 132.42420 35049 ft 348 kts 72°
2026-04-26 19:30 33.21911 132.47173 35047 ft 348 kts 72°
2026-04-26 19:31 33.22736 132.53859 35054 ft 348 kts 72°
2026-04-26 19:31 33.23438 132.59584 35048 ft 348 kts 72°
2026-04-26 19:32 33.24128 132.65312 35049 ft 348 kts 72°
2026-04-26 19:32 33.24819 132.71038 35048 ft 348 kts 72°
2026-04-26 19:33 33.25512 132.76764 35051 ft 349 kts 72°
2026-04-26 19:33 33.26206 132.82504 35054 ft 349 kts 72°
2026-04-26 19:34 33.26896 132.88233 35054 ft 349 kts 72°
2026-04-26 19:34 33.27584 132.93967 35053 ft 349 kts 72°
2026-04-26 19:35 33.28268 132.99697 35055 ft 348 kts 72°
2026-04-26 19:35 33.28952 133.05442 35051 ft 350 kts 72°
2026-04-26 19:36 33.29508 133.10215 35049 ft 349 kts 72°
2026-04-26 19:36 33.30287 133.16889 35051 ft 349 kts 72°
2026-04-26 19:37 33.30959 133.22630 35048 ft 348 kts 72°
2026-04-26 19:37 33.31629 133.28366 35047 ft 349 kts 72°
2026-04-26 19:38 33.32298 133.34105 35050 ft 349 kts 72°
2026-04-26 19:38 33.32964 133.39846 35048 ft 349 kts 72°
2026-04-26 19:39 33.33627 133.45586 35049 ft 349 kts 72°
2026-04-26 19:39 33.34289 133.51332 35049 ft 349 kts 72°
2026-04-26 19:40 33.34947 133.57077 35050 ft 349 kts 72°
2026-04-26 19:40 33.35602 133.62822 35049 ft 349 kts 72°
2026-04-26 19:41 33.36256 133.68571 35050 ft 349 kts 72°
2026-04-26 19:41 33.36797 133.73351 35048 ft 349 kts 72°
2026-04-26 19:42 33.37554 133.80072 35050 ft 349 kts 72°
2026-04-26 19:42 33.38200 133.85826 35049 ft 349 kts 72°
2026-04-26 19:43 33.38842 133.91578 35049 ft 349 kts 72°
2026-04-26 19:43 33.39483 133.97333 35049 ft 349 kts 72°
2026-04-26 19:44 33.40120 134.03088 35048 ft 349 kts 72°
2026-04-26 19:44 33.40730 134.08810 35047 ft 349 kts 73°
2026-04-26 19:45 33.41346 134.14573 35052 ft 349 kts 73°
2026-04-26 19:45 33.41970 134.20336 35047 ft 349 kts 73°
2026-04-26 19:46 33.42596 134.26099 35049 ft 349 kts 73°
2026-04-26 19:46 33.43119 134.30929 35048 ft 349 kts 73°